This demonstration page uses our WeatherBlox Daily Observations layout. Learn more.

Left ArrowRight Arrow

38.83388, -104.82136

Hourly Observations for March 31, 2021

Temp ( °F °C ) Dew Point ( °F °C ) Humidity (%) Winds ( mph kmh ) Pressure ( in mb ) Visibility ( mi km ) Precip ( " mm )
12:58 am 00:58 Clear 25 -4 18 -7.6 76 76 WNW 7 11 30.07 1018 10 16 0.00 0.00
1:58 am 01:58 Clear 25 -3.9 13 -10.4 61 61 WNW 5 7 30.07 1018 10 16 0.00 0.00
2:58 am 02:58 Clear 25 -3.9 10 -12 54 54 Calm 30.07 1018 10 16 0.00 0.00
3:58 am 03:58 Clear 24 -4.2 7 -14.1 46 46 WNW 8 13 30.08 1019 10 16 0.00 0.00
4:58 am 04:58 Clear 24 -4.5 6 -14.6 46 46 WNW 3 6 30.09 1019 10 16 0.00 0.00
5:58 am 05:58 Clear 24 -4.4 7 -14.1 47 47 Calm 30.12 1020 10 16 0.00 0.00
6:58 am 06:58 Sunny 24 -4.5 11 -11.7 58 58 Calm 30.11 1020 10 16 0.00 0.00
7:58 am 07:58 Sunny 27 -2.6 9 -13 45 45 NNE 7 11 30.13 1020 10 16 0.00 0.00
8:58 am 08:58 Sunny 31 -0.6 10 -12.5 41 41 NNE 7 11 30.15 1021 10 16 0.00 0.00
9:58 am 09:58 Sunny 33 0.4 6 -14.4 32 32 ENE 6 9 30.16 1021 10 16 0.00 0.00
10:58 am 10:58 Sunny 37 2.5 9 -12.9 31 31 ESE 6 9 30.14 1021 10 16 0.00 0.00
11:58 am 11:58 Sunny 39 3.9 10 -12.2 30 30 SE 7 11 30.14 1021 10 16 0.00 0.00
12:58 pm 12:58 Sunny 41 5.1 10 -12.5 27 27 ESE 7 11 30.11 1020 10 16 0.00 0.00
1:58 pm 13:58 Sunny 44 6.9 10 -12.2 24 24 SE 13 20 30.08 1019 10 16 0.00 0.00
2:58 pm 14:58 Sunny 46 7.8 8 -13.5 21 21 SE 6 9 30.06 1018 10 16 0.00 0.00
3:30 pm 15:30 Sunny 45 7 5 -15 19 19 S 16 26 30.09 1019 10 16 0.00 0.00
3:46 pm 15:46 Sunny 45 7 7 -14 21 21 SSE 14 22 30.09 1019 10 16 0.00 0.00
3:52 pm 15:52 Sunny 45 7 7 -14 21 21 ESE 14 22 30.09 1019 10 16 0.00 0.00
3:58 pm 15:58 Sunny 46 7.6 7 -14.1 20 20 SE 12 19 30.06 1018 10 16 0.00 0.00
4:58 pm 16:58 Sunny 43 6.3 6 -14.6 21 21 SE 12 19 30.09 1019 10 16 0.00 0.00
5:58 pm 17:58 Sunny 42 5.6 5 -14.8 22 22 SSE 10 17 30.09 1019 10 16 0.00 0.00
6:58 pm 18:58 Sunny 41 5.1 5 -15 22 22 S 9 15 30.14 1021 10 16 0.00 0.00
7:58 pm 19:58 Clear 41 4.8 4 -15.8 21 21 S 12 19 30.11 1020 10 16 0.00 0.00
8:58 pm 20:58 Clear 38 3.6 4 -15.3 24 24 SSE 16 26 30.12 1020 10 16 0.00 0.00
9:58 pm 21:58 Clear 37 2.9 4 -15.6 24 24 S 15 24 30.15 1021 10 16 0.00 0.00
10:58 pm 22:58 Clear 36 2.4 4 -15.5 26 26 S 16 26 30.15 1021 10 16 0.00 0.00
11:58 pm 23:58 Clear 35 1.5 4 -15.3 28 28 S 15 24 30.12 1020 10 16 0.00 0.00

Powered by AerisWeather